User: anonymous   Login
Location: Unspecified
(0.0000°N, 0.0000°E)
Time: 23:17:04
(UTC+00:00)
Language:

STARLINK-6178 - Orbit

View from above orbital plane
View from above orbital plane
View from above satellite
View from above satellite

Ground track
Ground track

The orbit is defined by the following mean orbital elements,

1 56387U          26145.33187250 +.00000000 +00000-0 +26534-4 0 00003
2 56387  43.0051 124.8430 0001490 285.8782  74.1905 15.27578262    01
Epoch (UTC): 25 May 2026 07:57:53
Eccentricity: 0.0001490
inclination: 43.0051°
perigee height: 482 km
apogee height: 484 km
right ascension of ascending node: 124.8430°
argument of perigee: 285.8782°
revolutions per day: 15.27578262
mean anomaly at epoch: 74.1905°

The dashed part of the orbit path shows where the satellite is in the earth's shadow,  

DLR